Time,TemperatureF,DewpointF,PressureIn,WindDirection,WindDirectionDegrees,WindSpeedMPH,WindSpeedGustMPH,Humidity,HourlyPrecipIn,Conditions,Clouds,dailyrainin,SoftwareType,DateUTC
2013-05-10 00:01:00,34.4,26.6,30.23,SSE,158,0.0,1.1,73,0.00,,,0.00,WUHU216HW,2013-05-10 07:01:00,
2013-05-10 00:06:00,34.2,26.4,30.24,South,180,0.9,1.3,73,0.00,,,0.00,WUHU216HW,2013-05-10 07:06:00,
2013-05-10 00:11:00,34.2,26.4,30.23,South,180,1.1,1.3,73,0.00,,,0.00,WUHU216HW,2013-05-10 07:11:00,
2013-05-10 00:17:00,34.0,26.2,30.24,SSW,203,0.0,1.3,73,0.00,,,0.00,WUHU216HW,2013-05-10 07:17:00,
2013-05-10 00:22:00,34.0,26.2,30.23,SSW,203,0.0,1.3,73,0.00,,,0.00,WUHU216HW,2013-05-10 07:22:00,
2013-05-10 00:27:00,34.0,26.5,30.24,SSW,203,0.0,0.2,74,0.00,,,0.00,WUHU216HW,2013-05-10 07:27:00,
2013-05-10 00:31:00,33.8,26.3,30.23,SSW,203,0.0,0.4,74,0.00,,,0.00,WUHU216HW,2013-05-10 07:31:00,
2013-05-10 00:36:00,33.8,26.3,30.24,SSE,158,0.0,0.4,74,0.00,,,0.00,WUHU216HW,2013-05-10 07:36:00,
2013-05-10 00:41:00,33.7,26.2,30.23,South,180,1.1,1.1,74,0.00,,,0.00,WUHU216HW,2013-05-10 07:41:00,
2013-05-10 00:46:00,33.7,26.5,30.23,South,180,1.1,1.3,75,0.00,,,0.00,WUHU216HW,2013-05-10 07:46:00,
2013-05-10 00:51:00,33.5,26.3,30.23,South,180,0.0,1.3,75,0.00,,,0.00,WUHU216HW,2013-05-10 07:51:00,
2013-05-10 00:56:00,33.5,26.3,30.23,SSE,158,1.6,1.8,75,0.00,,,0.00,WUHU216HW,2013-05-10 07:56:00,
2013-05-10 01:01:00,33.5,26.3,30.23,South,180,0.9,1.8,75,0.00,,,0.00,WUHU216HW,2013-05-10 08:01:00,
2013-05-10 01:06:00,33.3,26.2,30.23,SSE,158,0.7,1.8,75,0.00,,,0.00,WUHU216HW,2013-05-10 08:06:00,
2013-05-10 01:11:00,33.1,26.0,30.23,South,180,0.4,1.3,75,0.00,,,0.00,WUHU216HW,2013-05-10 08:11:00,
2013-05-10 01:16:00,33.1,26.0,30.23,South,180,1.1,1.3,75,0.00,,,0.00,WUHU216HW,2013-05-10 08:16:00,
2013-05-10 01:21:00,32.9,25.8,30.23,SW,225,0.0,1.6,75,0.00,,,0.00,WUHU216HW,2013-05-10 08:21:00,
2013-05-10 01:26:00,32.6,25.5,30.23,SW,225,0.0,1.6,75,0.00,,,0.00,WUHU216HW,2013-05-10 08:26:00,
2013-05-10 01:31:00,32.6,25.5,30.23,SW,225,0.0,0.0,75,0.00,,,0.00,WUHU216HW,2013-05-10 08:31:00,
2013-05-10 01:36:00,32.4,25.7,30.23,SW,225,0.0,0.0,76,0.00,,,0.00,WUHU216HW,2013-05-10 08:36:00,
2013-05-10 01:41:00,32.4,25.7,30.23,South,180,1.6,1.6,76,0.00,,,0.00,WUHU216HW,2013-05-10 08:41:00,
2013-05-10 01:46:00,32.4,25.7,30.22,South,180,0.9,1.6,76,0.00,,,0.00,WUHU216HW,2013-05-10 08:46:00,
2013-05-10 01:51:00,32.4,25.7,30.22,South,180,0.7,1.6,76,0.00,,,0.00,WUHU216HW,2013-05-10 08:51:00,
2013-05-10 01:56:00,32.4,25.7,30.22,SSW,203,0.4,1.1,76,0.00,,,0.00,WUHU216HW,2013-05-10 08:56:00,
2013-05-10 02:01:00,32.2,25.5,30.22,South,180,1.6,1.8,76,0.00,,,0.00,WUHU216HW,2013-05-10 09:01:00,
2013-05-10 02:06:00,32.2,25.5,30.22,South,180,2.0,2.0,76,0.00,,,0.00,WUHU216HW,2013-05-10 09:06:00,
2013-05-10 02:11:00,32.0,25.4,30.22,South,180,0.0,2.0,76,0.00,,,0.00,WUHU216HW,2013-05-10 09:11:00,
2013-05-10 02:16:00,32.0,25.4,30.22,SSE,158,0.0,1.6,76,0.00,,,0.00,WUHU216HW,2013-05-10 09:16:00,
2013-05-10 02:21:00,32.0,25.7,30.22,SSW,203,0.0,0.0,77,0.00,,,0.00,WUHU216HW,2013-05-10 09:21:00,
2013-05-10 02:26:00,32.0,25.7,30.22,South,180,1.1,1.1,77,0.00,,,0.00,WUHU216HW,2013-05-10 09:26:00,
2013-05-10 02:31:00,32.0,25.7,30.22,SSE,158,0.4,1.1,77,0.00,,,0.00,WUHU216HW,2013-05-10 09:31:00,
2013-05-10 02:36:00,31.9,25.5,30.22,SSE,158,0.9,1.3,77,0.00,,,0.00,WUHU216HW,2013-05-10 09:36:00,
2013-05-10 02:41:00,31.9,25.5,30.22,SSE,158,0.9,1.3,77,0.00,,,0.00,WUHU216HW,2013-05-10 09:41:00,
2013-05-10 02:46:00,31.7,25.3,30.22,SSE,158,1.1,1.1,77,0.00,,,0.00,WUHU216HW,2013-05-10 09:46:00,
2013-05-10 02:51:00,31.5,25.1,30.22,SSE,158,1.1,1.3,77,0.00,,,0.00,WUHU216HW,2013-05-10 09:51:00,
2013-05-10 02:56:00,31.3,24.9,30.22,SSE,158,0.0,1.3,77,0.00,,,0.00,WUHU216HW,2013-05-10 09:56:00,
2013-05-10 03:02:00,31.1,24.8,30.22,SSE,158,1.1,1.6,77,0.00,,,0.00,WUHU216HW,2013-05-10 10:02:00,
2013-05-10 03:07:00,31.1,24.8,30.22,South,180,1.1,1.8,77,0.00,,,0.00,WUHU216HW,2013-05-10 10:07:00,
2013-05-10 03:12:00,31.1,24.8,30.22,SSE,158,1.1,1.8,77,0.00,,,0.00,WUHU216HW,2013-05-10 10:12:00,
2013-05-10 03:17:00,31.0,24.6,30.22,South,180,0.9,1.1,77,0.00,,,0.00,WUHU216HW,2013-05-10 10:17:00,
2013-05-10 03:22:00,31.0,24.9,30.22,South,180,1.1,1.3,78,0.00,,,0.00,WUHU216HW,2013-05-10 10:22:00,
2013-05-10 03:27:00,31.0,24.9,30.22,SSE,158,1.1,1.3,78,0.00,,,0.00,WUHU216HW,2013-05-10 10:27:00,
2013-05-10 03:32:00,31.0,24.9,30.22,South,180,1.3,1.6,78,0.00,,,0.00,WUHU216HW,2013-05-10 10:32:00,
2013-05-10 03:37:00,31.0,24.9,30.21,SSE,158,0.7,2.0,78,0.00,,,0.00,WUHU216HW,2013-05-10 10:37:00,
2013-05-10 03:42:00,30.8,24.8,30.21,SSE,158,0.0,2.0,78,0.00,,,0.00,WUHU216HW,2013-05-10 10:42:00,
2013-05-10 03:47:00,30.6,24.6,30.22,SSE,158,0.0,0.7,78,0.00,,,0.00,WUHU216HW,2013-05-10 10:47:00,
2013-05-10 03:52:00,30.6,24.6,30.21,SSE,158,0.0,0.2,78,0.00,,,0.00,WUHU216HW,2013-05-10 10:52:00,
2013-05-10 03:57:00,30.6,24.6,30.21,SSE,158,0.0,0.2,78,0.00,,,0.00,WUHU216HW,2013-05-10 10:57:00,
2013-05-10 04:02:00,30.6,24.6,30.21,SSE,158,0.0,0.0,78,0.00,,,0.00,WUHU216HW,2013-05-10 11:02:00,
2013-05-10 04:07:00,30.6,24.6,30.21,South,180,0.0,0.0,78,0.00,,,0.00,WUHU216HW,2013-05-10 11:07:00,
2013-05-10 04:12:00,30.6,24.6,30.22,SSW,203,0.0,0.0,78,0.00,,,0.00,WUHU216HW,2013-05-10 11:12:00,
2013-05-10 04:17:00,30.4,24.4,30.22,South,180,0.7,0.7,78,0.00,,,0.00,WUHU216HW,2013-05-10 11:17:00,
2013-05-10 04:22:00,30.4,24.4,30.22,South,180,2.0,2.0,78,0.00,,,0.00,WUHU216HW,2013-05-10 11:22:00,
2013-05-10 04:27:00,30.4,24.4,30.22,SSE,158,1.1,3.1,78,0.00,,,0.00,WUHU216HW,2013-05-10 11:27:00,
2013-05-10 04:32:00,30.2,24.2,30.21,SE,135,0.2,3.1,78,0.00,,,0.00,WUHU216HW,2013-05-10 11:32:00,
2013-05-10 04:37:00,30.2,24.2,30.22,SE,135,0.0,1.3,78,0.00,,,0.00,WUHU216HW,2013-05-10 11:37:00,
2013-05-10 04:42:00,29.9,23.9,30.22,SE,135,0.0,1.1,78,0.00,,,0.00,WUHU216HW,2013-05-10 11:42:00,
2013-05-10 04:47:00,29.9,23.9,30.22,SSE,158,0.7,0.7,78,0.00,,,0.00,WUHU216HW,2013-05-10 11:47:00,
2013-05-10 04:52:00,29.9,23.9,30.21,SSW,203,1.1,1.6,78,0.00,,,0.00,WUHU216HW,2013-05-10 11:52:00,
2013-05-10 04:57:00,29.7,23.3,30.22,SW,225,0.0,1.6,77,0.00,,,0.00,WUHU216HW,2013-05-10 11:57:00,
2013-05-10 05:02:00,29.7,23.3,30.22,SW,225,0.0,1.3,77,0.00,,,0.00,WUHU216HW,2013-05-10 12:02:00,
2013-05-10 05:08:00,29.7,23.7,30.22,SSE,158,1.1,1.1,78,0.00,,,0.00,WUHU216HW,2013-05-10 12:08:00,
2013-05-10 05:13:00,29.5,23.5,30.22,South,180,2.0,2.0,78,0.00,,,0.00,WUHU216HW,2013-05-10 12:13:00,
2013-05-10 05:18:00,29.5,23.5,30.22,South,180,0.4,2.0,78,0.00,,,0.00,WUHU216HW,2013-05-10 12:18:00,
2013-05-10 05:23:00,29.5,23.8,30.23,South,180,1.1,2.0,79,0.00,,,0.00,WUHU216HW,2013-05-10 12:23:00,
2013-05-10 05:28:00,29.5,23.5,30.23,SSE,158,0.4,1.6,78,0.00,,,0.00,WUHU216HW,2013-05-10 12:28:00,
2013-05-10 05:33:00,29.5,23.5,30.23,South,180,0.7,1.3,78,0.00,,,0.00,WUHU216HW,2013-05-10 12:33:00,
2013-05-10 05:38:00,29.5,23.5,30.23,South,180,0.4,1.1,78,0.00,,,0.00,WUHU216HW,2013-05-10 12:38:00,
2013-05-10 05:43:00,29.5,23.5,30.23,SSE,158,0.0,1.1,78,0.00,,,0.00,WUHU216HW,2013-05-10 12:43:00,
2013-05-10 05:48:00,29.5,23.5,30.23,SSE,158,0.0,0.9,78,0.00,,,0.00,WUHU216HW,2013-05-10 12:48:00,
2013-05-10 05:53:00,29.5,23.5,30.23,South,180,0.0,0.7,78,0.00,,,0.00,WUHU216HW,2013-05-10 12:53:00,
2013-05-10 05:58:00,29.5,23.5,30.23,SSE,158,0.0,0.0,78,0.00,,,0.00,WUHU216HW,2013-05-10 12:58:00,
2013-05-10 06:03:00,29.5,23.5,30.23,SE,135,0.4,0.4,78,0.00,,,0.00,WUHU216HW,2013-05-10 13:03:00,
2013-05-10 06:08:00,29.7,23.9,30.24,SSE,158,1.1,1.3,79,0.00,,,0.00,WUHU216HW,2013-05-10 13:08:00,
2013-05-10 06:13:00,29.9,24.1,30.24,WSW,248,0.0,2.2,79,0.00,,,0.00,WUHU216HW,2013-05-10 13:13:00,
2013-05-10 06:18:00,29.9,24.1,30.24,SSE,158,0.0,2.2,79,0.00,,,0.00,WUHU216HW,2013-05-10 13:18:00,
2013-05-10 06:23:00,30.1,24.3,30.24,ESE,113,0.0,1.6,79,0.00,,,0.00,WUHU216HW,2013-05-10 13:23:00,
2013-05-10 06:28:00,30.2,24.5,30.24,ESE,113,0.0,0.9,79,0.00,,,0.00,WUHU216HW,2013-05-10 13:28:00,
2013-05-10 06:33:00,30.6,24.8,30.24,ESE,113,0.0,0.0,79,0.00,,,0.00,WUHU216HW,2013-05-10 13:33:00,
2013-05-10 06:38:00,30.8,25.4,30.24,ESE,113,0.0,0.9,80,0.00,,,0.00,WUHU216HW,2013-05-10 13:38:00,
2013-05-10 06:43:00,31.1,26.0,30.25,ESE,113,0.0,0.9,81,0.00,,,0.00,WUHU216HW,2013-05-10 13:43:00,
2013-05-10 06:48:00,31.5,26.4,30.25,East,90,0.4,1.1,81,0.00,,,0.00,WUHU216HW,2013-05-10 13:48:00,
2013-05-10 06:53:00,32.0,26.9,30.25,East,90,0.0,1.1,81,0.00,,,0.00,WUHU216HW,2013-05-10 13:53:00,
2013-05-10 06:58:00,32.6,27.7,30.25,North,0,0.0,0.4,82,0.00,,,0.00,WUHU216HW,2013-05-10 13:58:00,
2013-05-10 07:03:00,33.1,28.2,30.25,North,0,0.0,0.4,82,0.00,,,0.00,WUHU216HW,2013-05-10 14:03:00,
2013-05-10 07:08:00,33.8,29.2,30.25,North,0,0.0,0.4,83,0.00,,,0.00,WUHU216HW,2013-05-10 14:08:00,
2013-05-10 07:13:00,34.9,30.5,30.25,North,0,0.0,0.7,84,0.00,,,0.00,WUHU216HW,2013-05-10 14:13:00,
2013-05-10 07:18:00,36.0,31.9,30.25,East,90,1.6,1.8,85,0.00,,,0.00,WUHU216HW,2013-05-10 14:18:00,
2013-05-10 07:24:00,38.5,34.7,30.25,North,0,1.8,4.5,86,0.00,,,0.00,WUHU216HW,2013-05-10 14:24:00,
2013-05-10 07:29:00,41.2,36.7,30.25,ENE,68,1.1,5.6,84,0.00,,,0.00,WUHU216HW,2013-05-10 14:29:00,
2013-05-10 07:34:00,43.2,37.7,30.25,NE,45,1.8,5.6,81,0.00,,,0.00,WUHU216HW,2013-05-10 14:34:00,
2013-05-10 07:39:00,44.5,37.7,30.25,NE,45,4.0,4.7,77,0.00,,,0.00,WUHU216HW,2013-05-10 14:39:00,
2013-05-10 07:44:00,46.1,39.0,30.25,ENE,68,3.4,5.4,76,0.00,,,0.00,WUHU216HW,2013-05-10 14:44:00,
2013-05-10 07:49:00,47.5,38.3,30.25,NNE,23,2.0,6.5,70,0.00,,,0.00,WUHU216HW,2013-05-10 14:49:00,
2013-05-10 07:54:00,49.0,38.1,30.26,North,0,3.4,7.4,66,0.00,,,0.00,WUHU216HW,2013-05-10 14:54:00,
2013-05-10 07:59:00,50.2,38.9,30.26,North,0,4.0,7.4,65,0.00,,,0.00,WUHU216HW,2013-05-10 14:59:00,
2013-05-10 08:04:00,51.3,39.5,30.26,NE,45,4.0,6.7,64,0.00,,,0.00,WUHU216HW,2013-05-10 15:04:00,
2013-05-10 08:09:00,52.2,38.7,30.26,NNE,23,6.5,7.4,60,0.00,,,0.00,WUHU216HW,2013-05-10 15:09:00,
2013-05-10 08:14:00,53.5,39.1,30.26,NE,45,5.4,7.4,58,0.00,,,0.00,WUHU216HW,2013-05-10 15:14:00,
2013-05-10 08:19:00,54.4,38.0,30.26,North,0,4.7,7.4,54,0.00,,,0.00,WUHU216HW,2013-05-10 15:19:00,
2013-05-10 08:24:00,55.4,37.5,30.26,NNE,23,4.0,8.5,51,0.00,,,0.00,WUHU216HW,2013-05-10 15:24:00,
2013-05-10 08:29:00,55.6,37.7,30.26,NE,45,4.9,8.5,51,0.00,,,0.00,WUHU216HW,2013-05-10 15:29:00,
2013-05-10 08:33:00,56.2,37.8,30.26,NNE,23,3.6,6.9,50,0.00,,,0.00,WUHU216HW,2013-05-10 15:33:00,
2013-05-10 08:38:00,56.3,38.4,30.26,NE,45,5.6,6.9,51,0.00,,,0.00,WUHU216HW,2013-05-10 15:38:00,
2013-05-10 08:43:00,57.1,39.2,30.26,ESE,113,5.4,6.5,51,0.00,,,0.00,WUHU216HW,2013-05-10 15:43:00,
2013-05-10 08:48:00,58.1,38.5,30.26,NE,45,5.4,8.5,48,0.00,,,0.00,WUHU216HW,2013-05-10 15:48:00,
2013-05-10 08:53:00,58.5,39.4,30.26,East,90,4.7,8.5,49,0.00,,,0.00,WUHU216HW,2013-05-10 15:53:00,
2013-05-10 08:58:00,59.0,38.8,30.26,North,0,4.0,5.4,47,0.00,,,0.00,WUHU216HW,2013-05-10 15:58:00,
2013-05-10 09:03:00,59.6,38.1,30.27,East,90,8.7,8.7,45,0.00,,,0.00,WUHU216HW,2013-05-10 16:03:00,
2013-05-10 09:08:00,60.3,39.3,30.27,ESE,113,4.9,10.5,46,0.00,,,0.00,WUHU216HW,2013-05-10 16:08:00,
2013-05-10 09:13:00,61.4,40.3,30.26,South,180,4.5,10.5,46,0.00,,,0.00,WUHU216HW,2013-05-10 16:13:00,
2013-05-10 09:18:00,62.3,40.5,30.27,East,90,3.8,11.4,45,0.00,,,0.00,WUHU216HW,2013-05-10 16:18:00,
2013-05-10 09:23:00,62.3,36.9,30.27,East,90,6.9,11.4,39,0.00,,,0.00,WUHU216HW,2013-05-10 16:23:00,
2013-05-10 09:28:00,62.1,39.3,30.26,SSE,158,4.3,6.9,43,0.00,,,0.00,WUHU216HW,2013-05-10 16:28:00,
2013-05-10 09:33:00,63.2,39.1,30.27,East,90,8.5,8.5,41,0.00,,,0.00,WUHU216HW,2013-05-10 16:33:00,
2013-05-10 09:38:00,63.0,37.6,30.27,NE,45,1.3,9.2,39,0.00,,,0.00,WUHU216HW,2013-05-10 16:38:00,
2013-05-10 09:43:00,63.5,38.8,30.26,East,90,4.7,9.4,40,0.00,,,0.00,WUHU216HW,2013-05-10 16:43:00,
2013-05-10 09:48:00,64.1,37.8,30.26,ENE,68,2.5,9.4,38,0.00,,,0.00,WUHU216HW,2013-05-10 16:48:00,
2013-05-10 09:53:00,64.3,37.3,30.27,NE,45,4.7,9.2,37,0.00,,,0.00,WUHU216HW,2013-05-10 16:53:00,
2013-05-10 09:58:00,64.4,37.4,30.27,ENE,68,6.5,10.1,37,0.00,,,0.00,WUHU216HW,2013-05-10 16:58:00,
2013-05-10 10:03:00,65.2,37.4,30.27,NNW,338,3.4,10.1,36,0.00,,,0.00,WUHU216HW,2013-05-10 17:03:00,
2013-05-10 10:08:00,65.5,37.7,30.26,South,180,5.8,8.5,36,0.00,,,0.00,WUHU216HW,2013-05-10 17:08:00,
2013-05-10 10:13:00,65.3,36.1,30.27,East,90,6.3,9.8,34,0.00,,,0.00,WUHU216HW,2013-05-10 17:13:00,
2013-05-10 10:18:00,65.7,37.2,30.27,ESE,113,4.0,9.8,35,0.00,,,0.00,WUHU216HW,2013-05-10 17:18:00,
2013-05-10 10:24:00,65.2,35.9,30.27,North,0,4.5,7.6,34,0.00,,,0.00,WUHU216HW,2013-05-10 17:24:00,
2013-05-10 10:29:00,65.2,35.2,30.27,NE,45,6.9,8.7,33,0.00,,,0.00,WUHU216HW,2013-05-10 17:29:00,
2013-05-10 10:34:00,65.0,34.3,30.27,North,0,6.3,8.7,32,0.00,,,0.00,WUHU216HW,2013-05-10 17:34:00,
2013-05-10 10:44:00,65.9,36.5,30.27,SSW,203,1.1,9.6,34,0.00,,,0.00,WUHU216HW,2013-05-10 17:44:00,
2013-05-10 10:49:00,66.1,36.0,30.27,ESE,113,6.5,8.5,33,0.00,,,0.00,WUHU216HW,2013-05-10 17:49:00,
2013-05-10 10:54:00,66.6,35.0,30.27,NNE,23,2.9,8.9,31,0.00,,,0.00,WUHU216HW,2013-05-10 17:54:00,
2013-05-10 10:59:00,67.3,37.1,30.27,SE,135,6.5,8.9,33,0.00,,,0.00,WUHU216HW,2013-05-10 17:59:00,
2013-05-10 11:04:00,67.0,36.8,30.27,WNW,293,2.5,6.5,33,0.00,,,0.00,WUHU216HW,2013-05-10 18:04:00,
2013-05-10 11:09:00,66.8,36.6,30.27,ENE,68,4.9,9.8,33,0.00,,,0.00,WUHU216HW,2013-05-10 18:09:00,
2013-05-10 11:14:00,66.6,35.0,30.27,ESE,113,6.9,12.8,31,0.00,,,0.00,WUHU216HW,2013-05-10 18:14:00,
2013-05-10 11:19:00,67.0,36.1,30.27,NE,45,6.9,12.8,32,0.00,,,0.00,WUHU216HW,2013-05-10 18:19:00,
2013-05-10 11:24:00,67.5,36.5,30.27,SSE,158,3.4,10.3,32,0.00,,,0.00,WUHU216HW,2013-05-10 18:24:00,
2013-05-10 11:29:00,68.2,36.4,30.27,NNE,23,3.4,8.9,31,0.00,,,0.00,WUHU216HW,2013-05-10 18:29:00,
2013-05-10 11:34:00,68.6,36.7,30.27,East,90,1.8,6.9,31,0.00,,,0.00,WUHU216HW,2013-05-10 18:34:00,
2013-05-10 11:39:00,68.8,35.1,30.27,SE,135,2.5,10.1,29,0.00,,,0.00,WUHU216HW,2013-05-10 18:39:00,
2013-05-10 11:44:00,67.9,34.3,30.27,East,90,0.7,10.1,29,0.00,,,0.00,WUHU216HW,2013-05-10 18:44:00,
2013-05-10 11:49:00,67.5,35.0,30.27,East,90,5.4,6.3,30,0.00,,,0.00,WUHU216HW,2013-05-10 18:49:00,
2013-05-10 11:54:00,66.6,34.3,30.27,North,0,3.8,9.8,30,0.00,,,0.00,WUHU216HW,2013-05-10 18:54:00,
2013-05-10 11:59:00,65.7,35.0,30.27,NW,315,5.8,9.8,32,0.00,,,0.00,WUHU216HW,2013-05-10 18:59:00,
2013-05-10 12:04:00,65.2,34.5,30.26,West,270,6.7,7.4,32,0.00,,,0.00,WUHU216HW,2013-05-10 19:04:00,
2013-05-10 12:09:00,65.0,34.3,30.26,NW,315,6.7,7.4,32,0.00,,,0.00,WUHU216HW,2013-05-10 19:09:00,
2013-05-10 12:14:00,65.3,34.7,30.26,SW,225,4.0,6.7,32,0.00,,,0.00,WUHU216HW,2013-05-10 19:14:00,
2013-05-10 12:19:00,65.9,35.8,30.26,North,0,2.5,6.7,33,0.00,,,0.00,WUHU216HW,2013-05-10 19:19:00,
2013-05-10 12:24:00,66.1,34.6,30.26,NNW,338,5.1,5.4,31,0.00,,,0.00,WUHU216HW,2013-05-10 19:24:00,
2013-05-10 12:29:00,66.1,33.8,30.26,East,90,4.7,9.6,30,0.00,,,0.00,WUHU216HW,2013-05-10 19:29:00,
2013-05-10 12:34:00,66.6,35.0,30.26,SE,135,7.8,9.6,31,0.00,,,0.00,WUHU216HW,2013-05-10 19:34:00,
2013-05-10 12:39:00,67.1,34.7,30.26,NNW,338,3.4,7.8,30,0.00,,,0.00,WUHU216HW,2013-05-10 19:39:00,
2013-05-10 12:44:00,67.1,34.7,30.26,North,0,4.3,6.9,30,0.00,,,0.00,WUHU216HW,2013-05-10 19:44:00,
2013-05-10 12:49:00,66.4,33.1,30.26,NE,45,5.4,6.0,29,0.00,,,0.00,WUHU216HW,2013-05-10 19:49:00,
2013-05-10 12:54:00,65.9,33.7,30.26,North,0,1.3,6.0,30,0.00,,,0.00,WUHU216HW,2013-05-10 19:54:00,
2013-05-10 12:59:00,66.4,34.2,30.25,NW,315,2.7,4.9,30,0.00,,,0.00,WUHU216HW,2013-05-10 19:59:00,
2013-05-10 13:04:00,67.3,33.9,30.26,North,0,4.0,4.9,29,0.00,,,0.00,WUHU216HW,2013-05-10 20:04:00,
2013-05-10 13:09:00,67.5,33.0,30.25,NNW,338,6.0,7.4,28,0.00,,,0.00,WUHU216HW,2013-05-10 20:09:00,
2013-05-10 13:14:00,67.5,34.0,30.25,SSE,158,4.9,7.4,29,0.00,,,0.00,WUHU216HW,2013-05-10 20:14:00,
2013-05-10 13:19:00,68.2,34.7,30.25,WNW,293,3.4,6.9,29,0.00,,,0.00,WUHU216HW,2013-05-10 20:19:00,
2013-05-10 13:24:00,69.1,34.5,30.24,ESE,113,7.6,7.6,28,0.00,,,0.00,WUHU216HW,2013-05-10 20:24:00,
2013-05-10 13:29:00,69.3,32.6,30.24,NNE,23,1.3,15.7,26,0.00,,,0.00,WUHU216HW,2013-05-10 20:29:00,
2013-05-10 13:34:00,69.5,31.8,30.25,NW,315,4.0,15.7,25,0.00,,,0.00,WUHU216HW,2013-05-10 20:34:00,
2013-05-10 13:39:00,69.5,32.8,30.25,NE,45,6.5,8.7,26,0.00,,,0.00,WUHU216HW,2013-05-10 20:39:00,
2013-05-10 13:44:00,69.7,32.9,30.24,NNE,23,5.1,13.2,26,0.00,,,0.00,WUHU216HW,2013-05-10 20:44:00,
2013-05-10 13:49:00,69.5,31.8,30.24,ENE,68,3.8,13.2,25,0.00,,,0.00,WUHU216HW,2013-05-10 20:49:00,
2013-05-10 13:54:00,68.8,31.2,30.24,East,90,4.7,8.5,25,0.00,,,0.00,WUHU216HW,2013-05-10 20:54:00,
2013-05-10 13:59:00,68.6,32.0,30.24,SW,225,2.0,8.5,26,0.00,,,0.00,WUHU216HW,2013-05-10 20:59:00,
2013-05-10 14:04:00,68.0,30.5,30.24,North,0,3.8,6.3,25,0.00,,,0.00,WUHU216HW,2013-05-10 21:04:00,
2013-05-10 14:09:00,67.7,30.3,30.24,NNE,23,5.6,9.6,25,0.00,,,0.00,WUHU216HW,2013-05-10 21:09:00,
2013-05-10 14:14:00,68.0,30.5,30.24,NW,315,4.0,9.6,25,0.00,,,0.00,WUHU216HW,2013-05-10 21:14:00,
2013-05-10 14:19:00,68.0,31.5,30.24,NNW,338,2.5,6.3,26,0.00,,,0.00,WUHU216HW,2013-05-10 21:19:00,
2013-05-10 14:24:00,68.6,30.0,30.24,NW,315,6.3,6.3,24,0.00,,,0.00,WUHU216HW,2013-05-10 21:24:00,
2013-05-10 14:29:00,68.9,31.3,30.24,North,0,4.7,6.7,25,0.00,,,0.00,WUHU216HW,2013-05-10 21:29:00,
2013-05-10 14:34:00,69.5,30.7,30.24,NNW,338,7.6,8.1,24,0.00,,,0.00,WUHU216HW,2013-05-10 21:34:00,
2013-05-10 14:39:00,69.7,31.9,30.23,NNE,23,2.7,8.1,25,0.00,,,0.00,WUHU216HW,2013-05-10 21:39:00,
2013-05-10 14:44:00,70.2,31.3,30.24,NE,45,3.8,7.6,24,0.00,,,0.00,WUHU216HW,2013-05-10 21:44:00,
2013-05-10 14:49:00,70.4,30.5,30.23,NNE,23,4.3,8.3,23,0.00,,,0.00,WUHU216HW,2013-05-10 21:49:00,
2013-05-10 14:54:00,70.0,31.1,30.23,North,0,5.4,8.3,24,0.00,,,0.00,WUHU216HW,2013-05-10 21:54:00,
2013-05-10 14:58:00,70.2,31.3,30.23,East,90,3.6,8.3,24,0.00,,,0.00,WUHU216HW,2013-05-10 21:58:00,
2013-05-10 15:03:00,70.2,30.3,30.23,ENE,68,6.3,7.4,23,0.00,,,0.00,WUHU216HW,2013-05-10 22:03:00,
2013-05-10 15:08:00,68.9,29.3,30.23,NW,315,3.6,7.4,23,0.00,,,0.00,WUHU216HW,2013-05-10 22:08:00,
2013-05-10 15:13:00,68.8,29.2,30.23,NNW,338,6.7,6.7,23,0.00,,,0.00,WUHU216HW,2013-05-10 22:13:00,
2013-05-10 15:18:00,68.8,30.2,30.23,NW,315,3.4,6.9,24,0.00,,,0.00,WUHU216HW,2013-05-10 22:18:00,
2013-05-10 15:23:00,68.8,29.2,30.23,NE,45,4.3,6.9,23,0.00,,,0.00,WUHU216HW,2013-05-10 22:23:00,
2013-05-10 15:28:00,68.8,30.2,30.23,SE,135,2.9,7.6,24,0.00,,,0.00,WUHU216HW,2013-05-10 22:28:00,
2013-05-10 15:33:00,68.8,30.2,30.23,North,0,6.9,10.5,24,0.00,,,0.00,WUHU216HW,2013-05-10 22:33:00,
2013-05-10 15:38:00,68.8,29.2,30.23,East,90,3.4,10.5,23,0.00,,,0.00,WUHU216HW,2013-05-10 22:38:00,
2013-05-10 15:43:00,68.9,30.2,30.23,East,90,6.5,8.1,24,0.00,,,0.00,WUHU216HW,2013-05-10 22:43:00,
2013-05-10 15:48:00,69.1,29.4,30.23,NNW,338,2.7,8.1,23,0.00,,,0.00,WUHU216HW,2013-05-10 22:48:00,
2013-05-10 15:53:00,69.3,29.6,30.23,NNW,338,11.0,11.0,23,0.00,,,0.00,WUHU216HW,2013-05-10 22:53:00,
2013-05-10 15:58:00,69.5,28.7,30.23,NNE,23,8.9,11.0,22,0.00,,,0.00,WUHU216HW,2013-05-10 22:58:00,
2013-05-10 16:03:00,69.3,29.6,30.23,NE,45,6.3,11.0,23,0.00,,,0.00,WUHU216HW,2013-05-10 23:03:00,
2013-05-10 16:08:00,68.9,29.3,30.23,ESE,113,3.4,9.8,23,0.00,,,0.00,WUHU216HW,2013-05-10 23:08:00,
2013-05-10 16:13:00,68.8,28.2,30.23,SE,135,2.5,9.2,22,0.00,,,0.00,WUHU216HW,2013-05-10 23:13:00,
2013-05-10 16:18:00,68.8,29.2,30.23,NNW,338,4.7,9.2,23,0.00,,,0.00,WUHU216HW,2013-05-10 23:18:00,
2013-05-10 16:23:00,69.1,29.4,30.23,NE,45,8.1,9.2,23,0.00,,,0.00,WUHU216HW,2013-05-10 23:23:00,
2013-05-10 16:28:00,68.8,30.2,30.24,NNE,23,3.1,10.5,24,0.00,,,0.00,WUHU216HW,2013-05-10 23:28:00,
2013-05-10 16:33:00,68.8,29.2,30.23,NE,45,9.6,10.5,23,0.00,,,0.00,WUHU216HW,2013-05-10 23:33:00,
2013-05-10 16:38:00,68.0,28.5,30.23,NNE,23,7.4,13.0,23,0.00,,,0.00,WUHU216HW,2013-05-10 23:38:00,
2013-05-10 16:43:00,67.3,28.9,30.23,North,0,7.2,13.0,24,0.00,,,0.00,WUHU216HW,2013-05-10 23:43:00,
2013-05-10 16:48:00,67.0,29.6,30.24,North,0,10.3,13.9,25,0.00,,,0.00,WUHU216HW,2013-05-10 23:48:00,
2013-05-10 16:53:00,66.6,29.3,30.24,ESE,113,4.0,13.9,25,0.00,,,0.00,WUHU216HW,2013-05-10 23:53:00,
2013-05-10 16:58:00,66.6,29.3,30.24,North,0,8.3,11.0,25,0.00,,,0.00,WUHU216HW,2013-05-10 23:58:00,
2013-05-10 17:03:00,66.6,30.3,30.24,NNW,338,5.4,10.3,26,0.00,,,0.00,WUHU216HW,2013-05-11 00:03:00,
2013-05-10 17:08:00,66.4,30.2,30.24,NE,45,8.3,10.3,26,0.00,,,0.00,WUHU216HW,2013-05-11 00:08:00,
2013-05-10 17:13:00,66.2,34.0,30.24,ENE,68,8.7,15.4,30,0.00,,,0.00,WUHU216HW,2013-05-11 00:13:00,
2013-05-10 17:18:00,65.9,33.7,30.24,SE,135,3.1,17.7,30,0.00,,,0.00,WUHU216HW,2013-05-11 00:18:00,
2013-05-10 17:23:00,65.9,34.4,30.24,East,90,6.9,17.7,31,0.00,,,0.00,WUHU216HW,2013-05-11 00:23:00,
2013-05-10 17:28:00,65.5,33.4,30.24,ENE,68,6.0,13.4,30,0.00,,,0.00,WUHU216HW,2013-05-11 00:28:00,
2013-05-10 17:33:00,65.3,33.2,30.24,East,90,7.6,13.4,30,0.00,,,0.00,WUHU216HW,2013-05-11 00:33:00,
2013-05-10 17:38:00,65.3,33.2,30.24,NNE,23,4.7,9.6,30,0.00,,,0.00,WUHU216HW,2013-05-11 00:38:00,
2013-05-10 17:43:00,65.2,33.0,30.25,East,90,10.1,10.1,30,0.00,,,0.00,WUHU216HW,2013-05-11 00:43:00,
2013-05-10 17:48:00,64.8,32.8,30.24,NNW,338,6.5,12.1,30,0.00,,,0.00,WUHU216HW,2013-05-11 00:48:00,
2013-05-10 17:53:00,64.4,32.4,30.25,ENE,68,9.2,12.1,30,0.00,,,0.00,WUHU216HW,2013-05-11 00:53:00,
2013-05-10 17:58:00,64.3,32.2,30.25,NE,45,2.9,11.6,30,0.00,,,0.00,WUHU216HW,2013-05-11 00:58:00,
2013-05-10 18:03:00,64.1,32.0,30.25,NE,45,5.1,9.2,30,0.00,,,0.00,WUHU216HW,2013-05-11 01:03:00,
2013-05-10 18:08:00,63.9,32.0,30.25,East,90,4.0,9.2,30,0.00,,,0.00,WUHU216HW,2013-05-11 01:08:00,
2013-05-10 18:13:00,63.5,31.6,30.25,NNE,23,4.0,9.8,30,0.00,,,0.00,WUHU216HW,2013-05-11 01:13:00,
2013-05-10 18:18:00,63.4,31.4,30.25,NNE,23,8.5,9.8,30,0.00,,,0.00,WUHU216HW,2013-05-11 01:18:00,
2013-05-10 18:23:00,63.2,31.2,30.25,North,0,2.5,8.5,30,0.00,,,0.00,WUHU216HW,2013-05-11 01:23:00,
2013-05-10 18:28:00,63.0,31.2,30.26,NE,45,4.7,8.5,30,0.00,,,0.00,WUHU216HW,2013-05-11 01:28:00,
2013-05-10 18:33:00,62.8,30.0,30.26,ENE,68,4.9,7.8,29,0.00,,,0.00,WUHU216HW,2013-05-11 01:33:00,
2013-05-10 18:38:00,62.6,30.8,30.26,North,0,5.8,10.7,30,0.00,,,0.00,WUHU216HW,2013-05-11 01:38:00,
2013-05-10 18:43:00,62.3,29.5,30.26,NNE,23,9.2,10.7,29,0.00,,,0.00,WUHU216HW,2013-05-11 01:43:00,
2013-05-10 18:48:00,62.1,29.4,30.26,NNE,23,4.9,9.2,29,0.00,,,0.00,WUHU216HW,2013-05-11 01:48:00,
2013-05-10 18:53:00,61.6,28.9,30.26,NE,45,3.1,9.2,29,0.00,,,0.00,WUHU216HW,2013-05-11 01:53:00,
2013-05-10 18:58:00,61.4,29.6,30.26,North,0,4.7,10.1,30,0.00,,,0.00,WUHU216HW,2013-05-11 01:58:00,
2013-05-10 19:03:00,61.2,29.5,30.26,North,0,3.4,10.1,30,0.00,,,0.00,WUHU216HW,2013-05-11 02:03:00,
2013-05-10 19:08:00,60.8,29.9,30.27,NNE,23,4.7,6.5,31,0.00,,,0.00,WUHU216HW,2013-05-11 02:08:00,
2013-05-10 19:13:00,60.7,29.7,30.27,ENE,68,2.2,5.6,31,0.00,,,0.00,WUHU216HW,2013-05-11 02:13:00,
2013-05-10 19:18:00,60.3,29.4,30.27,NNE,23,1.8,5.6,31,0.00,,,0.00,WUHU216HW,2013-05-11 02:18:00,
2013-05-10 19:23:00,59.9,29.2,30.27,North,0,1.1,5.4,31,0.00,,,0.00,WUHU216HW,2013-05-11 02:23:00,
2013-05-10 19:28:00,59.6,29.6,30.27,NE,45,0.9,3.4,32,0.00,,,0.00,WUHU216HW,2013-05-11 02:28:00,
2013-05-10 19:33:00,59.4,29.4,30.28,North,0,0.7,3.4,32,0.00,,,0.00,WUHU216HW,2013-05-11 02:33:00,
2013-05-10 19:38:00,59.0,29.8,30.28,NNW,338,0.0,2.2,33,0.00,,,0.00,WUHU216HW,2013-05-11 02:38:00,
2013-05-10 19:43:00,58.7,30.3,30.28,SSE,158,1.1,2.0,34,0.00,,,0.00,WUHU216HW,2013-05-11 02:43:00,
2013-05-10 19:48:00,58.3,29.9,30.28,SSW,203,1.1,2.0,34,0.00,,,0.00,WUHU216HW,2013-05-11 02:48:00,
2013-05-10 19:53:00,57.8,30.8,30.27,South,180,1.1,1.8,36,0.00,,,0.00,WUHU216HW,2013-05-11 02:53:00,
2013-05-10 19:58:00,57.2,30.3,30.28,South,180,1.1,2.5,36,0.00,,,0.00,WUHU216HW,2013-05-11 02:58:00,
2013-05-10 20:03:00,56.7,30.5,30.28,South,180,1.8,2.7,37,0.00,,,0.00,WUHU216HW,2013-05-11 03:03:00,
2013-05-10 20:08:00,56.2,30.1,30.28,South,180,1.8,2.7,37,0.00,,,0.00,WUHU216HW,2013-05-11 03:08:00,
2013-05-10 20:13:00,55.6,29.5,30.29,SSE,158,0.0,2.2,37,0.00,,,0.00,WUHU216HW,2013-05-11 03:13:00,
2013-05-10 20:18:00,55.1,29.8,30.29,ESE,113,2.2,3.4,38,0.00,,,0.00,WUHU216HW,2013-05-11 03:18:00,
2013-05-10 20:23:00,54.4,29.9,30.30,ESE,113,2.5,3.4,39,0.00,,,0.00,WUHU216HW,2013-05-11 03:23:00,
2013-05-10 20:28:00,54.4,30.5,30.31,NE,45,4.9,4.9,40,0.00,,,0.00,WUHU216HW,2013-05-11 03:28:00,
2013-05-10 20:33:00,54.5,30.7,30.31,ESE,113,1.3,4.9,40,0.00,,,0.00,WUHU216HW,2013-05-11 03:33:00,
2013-05-10 20:38:00,54.9,31.6,30.32,East,90,1.3,4.9,41,0.00,,,0.00,WUHU216HW,2013-05-11 03:38:00,
2013-05-10 20:43:00,54.9,32.1,30.32,NE,45,1.8,4.9,42,0.00,,,0.00,WUHU216HW,2013-05-11 03:43:00,
2013-05-10 20:48:00,54.9,32.1,30.32,North,0,1.8,4.5,42,0.00,,,0.00,WUHU216HW,2013-05-11 03:48:00,
2013-05-10 20:53:00,54.7,32.0,30.33,ESE,113,0.9,3.4,42,0.00,,,0.00,WUHU216HW,2013-05-11 03:53:00,
2013-05-10 20:58:00,54.7,32.5,30.32,SE,135,3.6,4.7,43,0.00,,,0.00,WUHU216HW,2013-05-11 03:58:00,
2013-05-10 21:01:00,54.7,32.5,30.32,ESE,113,2.5,4.7,43,0.00,,,0.00,WUHU216HW,2013-05-11 04:01:00,
2013-05-10 21:06:00,54.5,32.4,30.32,SE,135,1.1,4.7,43,0.00,,,0.00,WUHU216HW,2013-05-11 04:06:00,
2013-05-10 21:11:00,54.4,32.2,30.32,East,90,1.1,4.0,43,0.00,,,0.00,WUHU216HW,2013-05-11 04:11:00,
2013-05-10 21:16:00,54.2,32.0,30.32,North,0,0.4,1.8,43,0.00,,,0.00,WUHU216HW,2013-05-11 04:16:00,
2013-05-10 21:21:00,54.2,32.0,30.32,NNW,338,0.9,1.3,43,0.00,,,0.00,WUHU216HW,2013-05-11 04:21:00,
2013-05-10 21:26:00,54.0,32.4,30.32,NNW,338,0.0,1.3,44,0.00,,,0.00,WUHU216HW,2013-05-11 04:26:00,
2013-05-10 21:31:00,53.8,32.3,30.32,South,180,0.9,1.1,44,0.00,,,0.00,WUHU216HW,2013-05-11 04:31:00,
2013-05-10 21:36:00,53.6,32.7,30.32,SSW,203,0.4,1.1,45,0.00,,,0.00,WUHU216HW,2013-05-11 04:36:00,
2013-05-10 21:41:00,53.3,32.3,30.32,South,180,0.0,1.1,45,0.00,,,0.00,WUHU216HW,2013-05-11 04:41:00,
2013-05-10 21:46:00,52.9,32.6,30.32,South,180,2.0,2.5,46,0.00,,,0.00,WUHU216HW,2013-05-11 04:46:00,
2013-05-10 21:51:00,52.6,32.2,30.33,South,180,2.2,2.5,46,0.00,,,0.00,WUHU216HW,2013-05-11 04:51:00,
2013-05-10 21:56:00,52.2,31.4,30.33,SSW,203,0.0,2.5,45,0.00,,,0.00,WUHU216HW,2013-05-11 04:56:00,
2013-05-10 22:01:00,51.8,31.6,30.33,SW,225,0.0,2.5,46,0.00,,,0.00,WUHU216HW,2013-05-11 05:01:00,
2013-05-10 22:06:00,51.5,31.3,30.33,South,180,1.3,1.3,46,0.00,,,0.00,WUHU216HW,2013-05-11 05:06:00,
2013-05-10 22:11:00,51.1,31.5,30.33,South,180,2.2,2.5,47,0.00,,,0.00,WUHU216HW,2013-05-11 05:11:00,
2013-05-10 22:16:00,50.8,31.2,30.33,South,180,2.5,3.1,47,0.00,,,0.00,WUHU216HW,2013-05-11 05:16:00,
2013-05-10 22:21:00,50.2,31.2,30.33,NE,45,2.9,3.1,48,0.00,,,0.00,WUHU216HW,2013-05-11 05:21:00,
2013-05-10 22:26:00,49.3,30.4,30.33,SSW,203,1.1,2.9,48,0.00,,,0.00,WUHU216HW,2013-05-11 05:26:00,
2013-05-10 22:31:00,49.3,30.4,30.33,SSE,158,1.8,2.9,48,0.00,,,0.00,WUHU216HW,2013-05-11 05:31:00,
2013-05-10 22:36:00,49.1,30.8,30.33,SW,225,0.9,2.7,49,0.00,,,0.00,WUHU216HW,2013-05-11 05:36:00,
2013-05-10 22:41:00,48.6,30.3,30.33,West,270,0.0,1.8,49,0.00,,,0.00,WUHU216HW,2013-05-11 05:41:00,
2013-05-10 22:46:00,48.2,29.9,30.33,South,180,2.0,2.5,49,0.00,,,0.00,WUHU216HW,2013-05-11 05:46:00,
2013-05-10 22:51:00,48.1,30.2,30.33,South,180,0.9,2.5,50,0.00,,,0.00,WUHU216HW,2013-05-11 05:51:00,
2013-05-10 22:56:00,47.7,30.0,30.34,SE,135,0.0,2.2,50,0.00,,,0.00,WUHU216HW,2013-05-11 05:56:00,
2013-05-10 23:01:00,47.5,29.8,30.34,SE,135,0.0,0.9,50,0.00,,,0.00,WUHU216HW,2013-05-11 06:01:00,
2013-05-10 23:06:00,47.2,29.9,30.34,South,180,1.8,2.5,51,0.00,,,0.00,WUHU216HW,2013-05-11 06:06:00,
2013-05-10 23:11:00,46.8,30.1,30.35,South,180,1.8,2.5,52,0.00,,,0.00,WUHU216HW,2013-05-11 06:11:00,
2013-05-10 23:16:00,46.6,29.9,30.34,South,180,1.8,2.7,52,0.00,,,0.00,WUHU216HW,2013-05-11 06:16:00,
2013-05-10 23:21:00,46.4,29.7,30.34,South,180,2.5,2.7,52,0.00,,,0.00,WUHU216HW,2013-05-11 06:21:00,
2013-05-10 23:26:00,46.1,29.3,30.34,SSW,203,2.0,4.0,52,0.00,,,0.00,WUHU216HW,2013-05-11 06:26:00,
2013-05-10 23:31:00,45.7,29.5,30.34,South,180,0.4,4.0,53,0.00,,,0.00,WUHU216HW,2013-05-11 06:31:00,
2013-05-10 23:36:00,45.5,29.3,30.34,SE,135,0.4,2.0,53,0.00,,,0.00,WUHU216HW,2013-05-11 06:36:00,
2013-05-10 23:41:00,45.2,29.4,30.34,South,180,2.0,2.2,54,0.00,,,0.00,WUHU216HW,2013-05-11 06:41:00,
2013-05-10 23:46:00,44.8,29.2,30.34,South,180,2.7,2.7,54,0.00,,,0.00,WUHU216HW,2013-05-11 06:46:00,
2013-05-10 23:51:00,44.6,28.5,30.34,SSE,158,1.8,2.9,53,0.00,,,0.00,WUHU216HW,2013-05-11 06:51:00,
2013-05-10 23:56:00,44.3,28.6,30.34,South,180,2.5,3.4,54,0.00,,,0.00,WUHU216HW,2013-05-11 06:56:00,